When you browse on this site, cookies collect data to enhance your experience and personalize the content and advertising you see.
Visit our Privacy Policy to learn more. By continuing to use the site, you agree to this use of cookies and data.
  • In Österreich
  • Länderverzeichnis
  • Für 7 Tage
  • Wassertemperatur
  • Wetterkarte
  • News
  • Widgets
  • user-avatar
    Anmelden

    Stündliche Wetter Zastuhna

    Heute, 19 August, Montag

    Zeit Temperatur Niederschläge Wind Luftdruck Luftfeuchtigkeit
    00:00 +18°C° 0 mm 1 m/S 750 mmHg 75%
    01:00 +18°C° 0 mm 1 m/S 750 mmHg 77%
    02:00 +16°C° 0 mm 1 m/S 750 mmHg 79%
    03:00 +16°C° 0 mm 1 m/S 750 mmHg 80%
    04:00 +16°C° 0 mm 1 m/S 750 mmHg 81%
    05:00 +16°C° 0 mm 2 m/S 750 mmHg 82%
    06:00 +18°C° 0 mm 2 m/S 751 mmHg 75%
    07:00 +20°C° 0 mm 2 m/S 751 mmHg 68%
    08:00 +23°C° 0 mm 1 m/S 751 mmHg 61%
    09:00 +24°C° 0 mm 1 m/S 751 mmHg 56%
    10:00 +26°C° 0 mm 1 m/S 751 mmHg 51%
    11:00 +27°C° 0 mm 2 m/S 752 mmHg 45%
    12:00 +28°C° 0 mm 1 m/S 752 mmHg 43%
    13:00 +29°C° 0 mm 1 m/S 752 mmHg 41%
    14:00 +29°C° 0 mm 1 m/S 752 mmHg 38%
    15:00 +29°C° 0 mm 1 m/S 752 mmHg 39%
    16:00 +29°C° 0 mm 1 m/S 751 mmHg 40%
    17:00 +29°C° 0 mm 1 m/S 751 mmHg 41%
    18:00 +27°C° 0 mm 1 m/S 752 mmHg 45%
    19:00 +25°C° 0 mm 1 m/S 752 mmHg 49%
    20:00 +23°C° 0 mm 1 m/S 752 mmHg 54%
    21:00 +22°C° 0 mm 1 m/S 752 mmHg 55%
    22:00 +22°C° 0 mm 1 m/S 752 mmHg 56%
    23:00 +21°C° 0 mm 1 m/S 752 mmHg 58%

    Morgen, 20 August, Dienstag

    Zeit Temperatur Niederschläge Wind Luftdruck Luftfeuchtigkeit
    00:00 +20°C° 0 mm 1 m/S 752 mmHg 59%
    01:00 +20°C° 0 mm 1 m/S 753 mmHg 61%
    02:00 +19°C° 0 mm 1 m/S 753 mmHg 62%
    03:00 +19°C° 0 mm 1 m/S 753 mmHg 64%
    04:00 +19°C° 0 mm 1 m/S 753 mmHg 65%
    05:00 +18°C° 0 mm 1 m/S 753 mmHg 66%
    06:00 +20°C° 0 mm 1 m/S 753 mmHg 61%
    07:00 +22°C° 0 mm 1 m/S 753 mmHg 57%
    08:00 +24°C° 0 mm 1 m/S 754 mmHg 53%
    09:00 +26°C° 0 mm 1 m/S 754 mmHg 49%
    10:00 +28°C° 0 mm 1 m/S 754 mmHg 45%
    11:00 +29°C° 0 mm 1 m/S 754 mmHg 41%
    12:00 +30°C° 0 mm 1 m/S 754 mmHg 39%
    13:00 +30°C° 0 mm 1 m/S 753 mmHg 37%
    14:00 +31°C° 0 mm 1 m/S 753 mmHg 35%
    15:00 +31°C° 0 mm 1 m/S 753 mmHg 37%
    16:00 +30°C° 0 mm 1 m/S 753 mmHg 38%
    17:00 +30°C° 0 mm 1 m/S 753 mmHg 40%
    18:00 +28°C° 0 mm 1 m/S 753 mmHg 44%
    19:00 +26°C° 0 mm 1 m/S 753 mmHg 49%
    20:00 +24°C° 0 mm 1 m/S 753 mmHg 53%
    21:00 +23°C° 0 mm 1 m/S 754 mmHg 55%
    22:00 +22°C° 0 mm 1 m/S 754 mmHg 57%
    23:00 +22°C° 0 mm 1 m/S 754 mmHg 59%

    übermorgen, 21 August, Mittwoch

    Zeit Temperatur Niederschläge Wind Luftdruck Luftfeuchtigkeit
    00:00 +21°C° 0 mm 1 m/S 754 mmHg 62%
    01:00 +20°C° 0 mm 2 m/S 754 mmHg 65%
    02:00 +19°C° 0 mm 2 m/S 754 mmHg 68%
    03:00 +19°C° 0 mm 2 m/S 754 mmHg 70%
    04:00 +20°C° 0 mm 1 m/S 753 mmHg 73%
    05:00 +19°C° 0 mm 1 m/S 753 mmHg 76%
    06:00 +21°C° 0 mm 1 m/S 753 mmHg 72%
    07:00 +23°C° 0 mm 2 m/S 754 mmHg 67%
    08:00 +25°C° 0 mm 2 m/S 754 mmHg 62%
    09:00 +26°C° 0 mm 2 m/S 754 mmHg 57%
    10:00 +28°C° 0 mm 2 m/S 754 mmHg 51%
    11:00 +29°C° 0 mm 2 m/S 754 mmHg 46%
    12:00 +30°C° 0 mm 2 m/S 753 mmHg 44%
    13:00 +31°C° 0 mm 2 m/S 753 mmHg 41%
    14:00 +31°C° 0 mm 2 m/S 753 mmHg 39%
    15:00 +31°C° 0 mm 2 m/S 752 mmHg 41%
    16:00 +31°C° 0 mm 2 m/S 752 mmHg 42%
    17:00 +31°C° 0 mm 2 m/S 752 mmHg 44%
    18:00 +29°C° 0 mm 2 m/S 752 mmHg 48%
    19:00 +27°C° 0 mm 2 m/S 752 mmHg 52%
    20:00 +25°C° 0 mm 2 m/S 752 mmHg 57%
    21:00 +24°C° 0 mm 2 m/S 752 mmHg 60%
    22:00 +24°C° 0 mm 2 m/S 752 mmHg 63%
    23:00 +23°C° 0 mm 2 m/S 752 mmHg 67%

    22 August, Donnerstag

    Zeit Temperatur Niederschläge Wind Luftdruck Luftfeuchtigkeit
    00:00 +23°C° 0 mm 2 m/S 752 mmHg 69%
    01:00 +21°C° 0 mm 2 m/S 752 mmHg 71%
    02:00 +22°C° 0 mm 1 m/S 752 mmHg 73%
    03:00 +22°C° 0 mm 1 m/S 752 mmHg 74%
    04:00 +21°C° 0 mm 1 m/S 752 mmHg 76%
    05:00 +21°C° 0 mm 1 m/S 752 mmHg 77%
    06:00 +23°C° 0 mm 2 m/S 752 mmHg 72%
    07:00 +25°C° 0 mm 2 m/S 752 mmHg 68%
    08:00 +26°C° 0 mm 2 m/S 752 mmHg 63%
    09:00 +28°C° 0 mm 3 m/S 752 mmHg 57%
    10:00 +29°C° 0 mm 3 m/S 752 mmHg 52%
    11:00 +31°C° 0 mm 3 m/S 752 mmHg 46%
    12:00 +31°C° 0 mm 3 m/S 752 mmHg 44%
    13:00 +33°C° 0 mm 3 m/S 752 mmHg 41%
    14:00 +33°C° 0 mm 3 m/S 752 mmHg 39%
    15:00 +33°C° 0 mm 3 m/S 752 mmHg 41%
    16:00 +33°C° 0 mm 3 m/S 751 mmHg 43%
    17:00 +31°C° 0 mm 3 m/S 751 mmHg 45%
    18:00 +29°C° 0 mm 2 m/S 752 mmHg 48%
    19:00 +27°C° 0 mm 2 m/S 752 mmHg 51%
    20:00 +26°C° 0 mm 2 m/S 752 mmHg 54%
    21:00 +25°C° 0 mm 2 m/S 752 mmHg 57%
    22:00 +24°C° 0 mm 2 m/S 752 mmHg 59%
    23:00 +24°C° 0 mm 2 m/S 752 mmHg 62%

    23 August, Freitag

    Zeit Temperatur Niederschläge Wind Luftdruck Luftfeuchtigkeit
    00:00 +23°C° 0 mm 2 m/S 752 mmHg 65%
    01:00 +23°C° 0 mm 2 m/S 752 mmHg 67%
    02:00 +21°C° 0 mm 2 m/S 752 mmHg 70%
    03:00 +21°C° 0 mm 2 m/S 752 mmHg 72%
    04:00 +20°C° 0 mm 2 m/S 752 mmHg 74%
    05:00 +20°C° 0 mm 2 m/S 752 mmHg 75%
    06:00 +23°C° 0 mm 2 m/S 752 mmHg 72%
    07:00 +24°C° 0 mm 2 m/S 752 mmHg 69%
    08:00 +25°C° 0 mm 3 m/S 753 mmHg 65%
    09:00 +27°C° 0 mm 3 m/S 753 mmHg 60%
    10:00 +28°C° 0 mm 3 m/S 753 mmHg 54%
    11:00 +30°C° 0 mm 3 m/S 753 mmHg 49%
    12:00 +30°C° 0 mm 3 m/S 753 mmHg 49%
    13:00 +32°C° 0 mm 4 m/S 753 mmHg 49%
    14:00 +32°C° 0 mm 4 m/S 753 mmHg 49%
    15:00 +30°C° 0 mm 4 m/S 753 mmHg 54%
    16:00 +29°C° 0 mm 5 m/S 753 mmHg 59%
    17:00 +28°C° 0 mm 5 m/S 753 mmHg 64%
    18:00 +26°C° 0 mm 5 m/S 753 mmHg 70%
    19:00 +25°C° 0 mm 4 m/S 753 mmHg 76%
    20:00 +22°C° 0 mm 4 m/S 754 mmHg 82%
    21:00 +22°C° 0 mm 4 m/S 754 mmHg 83%
    22:00 +21°C° 0 mm 4 m/S 754 mmHg 84%
    23:00 +20°C° 0 mm 4 m/S 754 mmHg 85%

    24 August, Samstag

    Zeit Temperatur Niederschläge Wind Luftdruck Luftfeuchtigkeit
    00:00 +20°C° 0 mm 4 m/S 754 mmHg 84%
    01:00 +19°C° 0 mm 4 m/S 754 mmHg 84%
    02:00 +18°C° 0 mm 4 m/S 754 mmHg 84%
    03:00 +18°C° 0 mm 4 m/S 755 mmHg 86%
    04:00 +17°C° 0 mm 4 m/S 755 mmHg 88%
    05:00 +15°C° 0 mm 4 m/S 755 mmHg 90%
    06:00 +17°C° 0 mm 4 m/S 755 mmHg 82%
    07:00 +17°C° 0 mm 5 m/S 755 mmHg 75%
    08:00 +20°C° 0 mm 5 m/S 756 mmHg 68%
    09:00 +21°C° 0 mm 5 m/S 756 mmHg 61%
    10:00 +23°C° 0 mm 5 m/S 756 mmHg 54%
    11:00 +25°C° 0 mm 5 m/S 756 mmHg 47%
    12:00 +26°C° 0 mm 5 m/S 756 mmHg 44%
    13:00 +27°C° 0 mm 5 m/S 756 mmHg 40%
    14:00 +27°C° 0 mm 5 m/S 756 mmHg 37%
    15:00 +27°C° 0 mm 5 m/S 756 mmHg 38%
    16:00 +26°C° 0 mm 5 m/S 756 mmHg 40%
    17:00 +26°C° 0 mm 4 m/S 756 mmHg 41%
    18:00 +23°C° 0 mm 4 m/S 756 mmHg 46%
    19:00 +21°C° 0 mm 4 m/S 756 mmHg 51%
    20:00 +19°C° 0 mm 3 m/S 756 mmHg 57%
    21:00 +18°C° 0 mm 3 m/S 757 mmHg 60%
    22:00 +17°C° 0 mm 3 m/S 757 mmHg 63%
    23:00 +16°C° 0 mm 3 m/S 757 mmHg 67%
    Mehr zeigen